• In Hungary
  • List of Countries
  • For 7 days
  • Water Temperature
  • Satellite Maps
  • Weather Map
  • News
  • Weather Widgets
  • user-avatar
    Login

    Hourly Weather Stepanovka

    Today, 16 November, Friday

    Time Temperature Precipitation Wind Pressure Humidity
    00:00 -6°C° 0 mm 3 mps 764 mmHg 31%
    01:00 -6°C° 0 mm 3 mps 764 mmHg 31%
    02:00 -6°C° 0 mm 3 mps 764 mmHg 31%
    03:00 -7°C° 0 mm 3 mps 765 mmHg 31%
    04:00 -7°C° 0 mm 3 mps 765 mmHg 30%
    05:00 -7°C° 0 mm 3 mps 765 mmHg 30%
    06:00 -7°C° 0 mm 3 mps 765 mmHg 29%
    07:00 -6°C° 0 mm 3 mps 765 mmHg 28%
    08:00 -7°C° 0 mm 4 mps 766 mmHg 26%
    09:00 -7°C° 0 mm 4 mps 766 mmHg 24%
    10:00 -4°C° 0 mm 4 mps 766 mmHg 22%
    11:00 -3°C° 0 mm 4 mps 766 mmHg 21%
    12:00 -2°C° 0 mm 4 mps 766 mmHg 19%
    13:00 -2°C° 0 mm 4 mps 766 mmHg 20%
    14:00 -1°C° 0 mm 3 mps 766 mmHg 21%
    15:00 -1°C° 0 mm 3 mps 766 mmHg 22%
    16:00 -2°C° 0 mm 3 mps 766 mmHg 24%
    17:00 -4°C° 0 mm 3 mps 766 mmHg 26%
    18:00 -5°C° 0 mm 3 mps 766 mmHg 28%
    19:00 -5°C° 0 mm 3 mps 766 mmHg 28%
    20:00 -5°C° 0 mm 3 mps 766 mmHg 28%
    21:00 -5°C° 0 mm 3 mps 766 mmHg 28%
    22:00 -5°C° 0 mm 3 mps 766 mmHg 28%
    23:00 -5°C° 0 mm 3 mps 766 mmHg 28%

    Tomorrow, 17 November, Saturday

    Time Temperature Precipitation Wind Pressure Humidity
    00:00 -6°C° 0 mm 3 mps 765 mmHg 28%
    01:00 -5°C° 0 mm 2 mps 765 mmHg 28%
    02:00 -5°C° 0 mm 2 mps 765 mmHg 28%
    03:00 -5°C° 0 mm 2 mps 765 mmHg 28%
    04:00 -5°C° 0 mm 2 mps 765 mmHg 27%
    05:00 -5°C° 0 mm 2 mps 764 mmHg 27%
    06:00 -5°C° 0 mm 2 mps 764 mmHg 27%
    07:00 -5°C° 0 mm 2 mps 764 mmHg 27%
    08:00 -5°C° 0 mm 2 mps 764 mmHg 26%
    09:00 -2°C° 0 mm 1 mps 764 mmHg 25%
    10:00 -1°C° 0 mm 1 mps 763 mmHg 23%
    11:00 0°C° 0 mm 1 mps 763 mmHg 21%
    12:00 +2°C° 0 mm 1 mps 763 mmHg 19%
    13:00 +1°C° 0 mm 1 mps 762 mmHg 20%
    14:00 +1°C° 0 mm 1 mps 761 mmHg 22%
    15:00 +1°C° 0 mm 1 mps 761 mmHg 23%
    16:00 +1°C° 0 mm 1 mps 760 mmHg 24%
    17:00 0°C° 0 mm 1 mps 760 mmHg 25%
    18:00 -1°C° 0 mm 1 mps 759 mmHg 25%
    19:00 -1°C° 0 mm 1 mps 759 mmHg 25%
    20:00 -1°C° 0 mm 1 mps 758 mmHg 25%
    21:00 -1°C° 0 mm 1 mps 758 mmHg 25%
    22:00 -4°C° 0 mm 2 mps 757 mmHg 26%
    23:00 -4°C° 0 mm 2 mps 756 mmHg 26%

    Day after tomorrow, 18 November, Sunday

    Time Temperature Precipitation Wind Pressure Humidity
    00:00 -4°C° 0 mm 2 mps 756 mmHg 27%
    01:00 -4°C° 0 mm 2 mps 755 mmHg 27%
    02:00 -5°C° 0 mm 2 mps 755 mmHg 28%
    03:00 -5°C° 0 mm 2 mps 754 mmHg 28%
    04:00 -5°C° 0 mm 2 mps 754 mmHg 29%
    05:00 -6°C° 0 mm 3 mps 753 mmHg 29%
    06:00 -6°C° 0 mm 3 mps 752 mmHg 29%
    07:00 -6°C° 0 mm 3 mps 752 mmHg 29%
    08:00 -6°C° 0 mm 3 mps 752 mmHg 28%
    09:00 -6°C° 0 mm 3 mps 752 mmHg 27%
    10:00 -5°C° 0 mm 3 mps 751 mmHg 25%
    11:00 -2°C° 0 mm 3 mps 751 mmHg 23%
    12:00 -1°C° 0 mm 3 mps 751 mmHg 22%
    13:00 -1°C° 0 mm 3 mps 751 mmHg 23%
    14:00 -1°C° 0 mm 3 mps 751 mmHg 25%
    15:00 -1°C° 0 mm 3 mps 751 mmHg 27%
    16:00 -2°C° 0 mm 2 mps 751 mmHg 30%
    17:00 -3°C° 0 mm 2 mps 751 mmHg 33%
    18:00 -3°C° 0 mm 2 mps 751 mmHg 36%
    19:00 -4°C° 0 mm 2 mps 751 mmHg 38%
    20:00 -4°C° 0 mm 2 mps 751 mmHg 40%
    21:00 -4°C° 0 mm 2 mps 751 mmHg 42%
    22:00 -4°C° 0 mm 2 mps 751 mmHg 43%
    23:00 -4°C° 0 mm 2 mps 752 mmHg 44%

    19 November, Monday

    Time Temperature Precipitation Wind Pressure Humidity
    00:00 -4°C° 0 mm 2 mps 752 mmHg 45%
    01:00 -4°C° 0 mm 2 mps 752 mmHg 46%
    02:00 -5°C° 0 mm 2 mps 752 mmHg 46%
    03:00 -5°C° 0 mm 2 mps 753 mmHg 47%
    04:00 -5°C° 0 mm 2 mps 753 mmHg 47%
    05:00 -5°C° 0 mm 2 mps 753 mmHg 48%
    06:00 -5°C° 0 mm 2 mps 753 mmHg 48%
    07:00 -5°C° 0 mm 2 mps 754 mmHg 47%
    08:00 -4°C° 0 mm 2 mps 754 mmHg 47%
    09:00 -4°C° 0 mm 2 mps 755 mmHg 46%
    10:00 -3°C° 0 mm 2 mps 755 mmHg 43%
    11:00 -2°C° 0 mm 2 mps 756 mmHg 39%
    12:00 -1°C° 0 mm 2 mps 756 mmHg 36%
    13:00 -1°C° 0 mm 2 mps 756 mmHg 37%
    14:00 -1°C° 0 mm 2 mps 757 mmHg 38%
    15:00 -1°C° 0 mm 2 mps 757 mmHg 39%
    16:00 -1°C° 0 mm 2 mps 757 mmHg 41%
    17:00 -2°C° 0 mm 2 mps 757 mmHg 43%
    18:00 -3°C° 0 mm 2 mps 758 mmHg 44%
    19:00 -3°C° 0 mm 2 mps 758 mmHg 44%
    20:00 -4°C° 0 mm 3 mps 758 mmHg 44%
    21:00 -4°C° 0 mm 3 mps 758 mmHg 44%
    22:00 -3°C° 0 mm 2 mps 759 mmHg 44%
    23:00 -4°C° 0 mm 2 mps 759 mmHg 43%

    20 November, Tuesday

    Time Temperature Precipitation Wind Pressure Humidity
    00:00 -4°C° 0 mm 2 mps 759 mmHg 43%
    01:00 -4°C° 0 mm 2 mps 759 mmHg 42%
    02:00 -4°C° 0 mm 2 mps 759 mmHg 41%
    03:00 -4°C° 0 mm 2 mps 760 mmHg 40%
    04:00 -4°C° 0 mm 2 mps 759 mmHg 39%
    05:00 -4°C° 0 mm 2 mps 759 mmHg 38%
    06:00 -4°C° 0 mm 2 mps 759 mmHg 37%
    07:00 -4°C° 0 mm 2 mps 759 mmHg 36%
    08:00 -3°C° 0 mm 2 mps 759 mmHg 35%
    09:00 -3°C° 0 mm 2 mps 760 mmHg 34%
    10:00 -3°C° 0 mm 2 mps 760 mmHg 33%
    11:00 -2°C° 0 mm 2 mps 760 mmHg 31%
    12:00 -1°C° 0 mm 2 mps 760 mmHg 29%
    13:00 -1°C° 0 mm 2 mps 759 mmHg 29%
    14:00 -1°C° 0 mm 2 mps 759 mmHg 30%
    15:00 -1°C° 0 mm 2 mps 759 mmHg 30%
    16:00 -2°C° 0 mm 2 mps 759 mmHg 31%
    17:00 -2°C° 0 mm 2 mps 759 mmHg 32%
    18:00 -3°C° 0 mm 2 mps 759 mmHg 33%
    19:00 -3°C° 0 mm 2 mps 759 mmHg 33%
    20:00 -3°C° 0 mm 2 mps 758 mmHg 34%
    21:00 -3°C° 0 mm 2 mps 758 mmHg 34%
    22:00 -4°C° 0 mm 2 mps 758 mmHg 36%
    23:00 -4°C° 0 mm 2 mps 758 mmHg 37%

    21 November, Wednesday

    Time Temperature Precipitation Wind Pressure Humidity
    00:00 -4°C° 0 mm 2 mps 758 mmHg 39%
    01:00 -4°C° 0 mm 2 mps 758 mmHg 41%
    02:00 -4°C° 0 mm 2 mps 758 mmHg 43%
    03:00 -4°C° 0 mm 2 mps 757 mmHg 45%
    04:00 -5°C° 0 mm 2 mps 757 mmHg 48%
    05:00 -5°C° 0 mm 2 mps 757 mmHg 50%
    06:00 -5°C° 0 mm 2 mps 757 mmHg 53%
    07:00 -5°C° 0 mm 2 mps 757 mmHg 55%
    08:00 -5°C° 0 mm 2 mps 756 mmHg 57%
    09:00 -5°C° 0 mm 3 mps 756 mmHg 58%
    10:00 -4°C° 0 mm 3 mps 756 mmHg 57%
    11:00 -2°C° 0 mm 3 mps 756 mmHg 55%
    12:00 -2°C° 0 mm 3 mps 756 mmHg 54%
    13:00 -1°C° 0 mm 3 mps 755 mmHg 55%
    14:00 -1°C° 0 mm 3 mps 755 mmHg 57%
    15:00 -1°C° 0 mm 3 mps 754 mmHg 58%
    16:00 -2°C° 0 mm 3 mps 754 mmHg 64%
    17:00 -4°C° 0 mm 3 mps 754 mmHg 69%
    18:00 -4°C° 0 mm 3 mps 753 mmHg 74%
    19:00 -4°C° 0 mm 3 mps 753 mmHg 76%
    20:00 -5°C° 0 mm 3 mps 753 mmHg 78%
    21:00 -5°C° 0 mm 3 mps 753 mmHg 80%
    22:00 -5°C° 0 mm 3 mps 753 mmHg 81%
    23:00 -5°C° 0 mm 3 mps 753 mmHg 82%
    Show more